OneWeb SL0702

operational
NORAD ID: 61608 Int'l Des: 2024-188 Owner: ONEWEBE Country: UK Constellation: oneweb
LEOCIRCULARPOLARONEWEB_TYPE

About OneWeb SL0702

Description loading...

Live Position

Loading 3D Globe...

Upcoming Passes

Altitude History

Altitude vs Time

uPlot chart will show altitude changes over time

Two-Line Element Set

1 61608U 24188Q 26033.50832701 -.00000168 00000-0 -50931-3 0 9992
2 61608 87.8826 47.7684 0002164 120.3048 239.8295 13.11415145 66836
Epoch: Feb 2, 2026 • Age: 16 hours

Current Status

Altitude 1245.1 km
Velocity 7.23 km/s
Sub-Earth Point -70.32°S, 38.37°E
Launch Date Oct 20, 2024
Age 1.2 years
Type internet

Technical Details

Classification Payload
Mass 148.00 kg
Dry Mass 140.00 kg
Total Mass 148.00 kg
Length 1.30 m
Diameter 1.00 m
Span 5.00 m
Shape Trapezoid+2 pan
Manufacturer ONEWUS
Bus Type ARROW
Phase Status In Orbit
Owner/State ONEWEBE/UK

Large Constellations

Loading constellations...